FW6883 Weather Reports


Display with metric or nautical units.
time (UTC)temp
F
wind
direction
speed
MPH
gust
MPH
rain 1hr
in
rain 24hr
in
rain mn
in
humidity
%
barometer
mb
20260506033020 35 106 2.0 6.0 0.00 0.24 0.24 97 1011.9
20260506031519 35 91 0.0 7.0 0.00 0.24 0.24 97 1011.8
20260506030015 35 105 4.0 12.0 0.00 0.24 0.24 97 1011.5
20260506024512 36 104 2.0 7.0 0.00 0.24 0.24 97 1011.3
20260506023009 35 103 4.0 9.0 0.00 0.24 0.24 97 1011.2
20260506021508 35 113 4.0 8.0 0.00 0.24 0.24 97 1011.0
20260506020005 35 109 3.0 9.0 0.00 0.24 0.24 97 1010.8
20260506014503 36 96 3.0 8.0 0.00 0.24 0.24 97 1010.6
20260506013002 36 101 2.0 8.0 0.00 0.24 0.24 97 1010.4
20260506011626 36 97 3.0 10.0 0.00 0.24 0.24 96 1010.4
20260506010103 36 108 2.0 9.0 0.00 0.24 0.24 96 1010.5
20260506004625 36 91 5.0 9.0 0.00 0.24 0.24 96 1010.3
20260506003108 36 105 2.0 10.0 0.00 0.24 0.24 96 1010.4
20260506001555 36 97 2.0 8.0 0.00 0.24 0.24 96 1010.5
20260506000048 36 115 4.0 10.0 0.00 0.24 0.24 96 1010.2
20260505234606 36 81 3.0 11.0 0.00 0.24 0.24 96 1010.2
20260505233045 36 114 3.0 7.0 0.00 0.24 0.24 96 1010.1
20260505231544 36 96 2.0 9.0 0.00 0.24 0.24 95 1010.1
20260505230043 36 84 1.0 7.0 0.00 0.24 0.24 95 1010.2
20260505224541 36 91 1.0 7.0 0.00 0.24 0.24 95 1010.2
20260505223036 36 105 3.0 8.0 0.00 0.24 0.24 94 1010.3
20260505221534 37 79 4.0 11.0 0.00 0.24 0.24 93 1010.2
20260505220043 37 95 1.0 8.0 0.00 0.24 0.24 92 1010.4
20260505214536 38 78 3.0 8.0 0.00 0.24 0.24 91 1010.4
20260505213026 37 67 0.0 4.0 0.00 0.24 0.24 93 1010.6
20260505211522 36 94 1.0 4.0 0.00 0.24 0.24 94 1010.9
20260505210019 35 96 0.0 6.0 0.00 0.24 0.24 94 1010.7
20260505204517 36 85 1.0 6.0 0.00 0.24 0.24 93 1010.7
20260505203014 36 101 3.0 9.0 0.00 0.24 0.24 91 1010.8
20260505201513 36 103 2.0 10.0 0.00 0.24 0.24 90 1010.6
20260505200006 36 108 3.0 7.0 0.00 0.24 0.24 93 1010.6
20260505194605 35 64 3.0 6.0 0.00 0.24 0.24 95 1010.9
20260505193005 35 84 3.0 7.0 0.00 0.24 0.24 95 1011.1
20260505191602 35 114 2.0 8.0 0.00 0.24 0.24 96 1011.0
20260505190057 34 103 3.0 7.0 0.00 0.24 0.24 95 1010.9
20260505184602 35 91 2.0 6.0 0.01 0.24 0.24 96 1010.8
20260505183053 34 77 2.0 7.0 0.01 0.24 0.24 96 1010.8
20260505181551 34 102 2.0 7.0 0.02 0.24 0.24 96 1010.5
20260505180053 34 106 3.0 9.0 0.03 0.24 0.24 96 1010.3
20260505174605 34 88 3.0 9.0 0.05 0.23 0.23 96 1009.9
20260505173043 34 82 4.0 10.0 0.05 0.23 0.23 96 1009.7
20260505171539 35 94 2.0 8.0 0.07 0.22 0.22 96 1009.5
20260505170046 34 89 1.0 9.0 0.06 0.21 0.21 96 1009.3
20260505164636 34 96 3.0 11.0 0.04 0.18 0.18 96 1009.2
20260505163038 34 122 4.0 10.0 0.04 0.18 0.18 95 1008.8
20260505161530 35 91 1.0 7.0 0.02 0.15 0.15 95 1008.6
20260505153029 35 93 2.0 9.0 0.03 0.14 0.14 96 1008.3
20260505151521 35 101 2.0 7.0 0.02 0.13 0.13 96 1008.4
20260505124557 33 108 2.0 4.0 0.03 0.05 0.05 96 1007.7
20260505123112 34 126 0.0 3.0 0.01 0.03 0.03 96 1007.5
20260505121551 34 105 1.0 4.0 0.01 0.03 0.03 96 1007.8
20260505120049 34 83 1.0 5.0 0.00 0.02 0.02 96 1007.9
20260505114609 33 86 2.0 7.0 0.00 0.02 0.02 96 1007.9
20260505113044 33 130 0.0 4.0 0.00 0.02 0.02 96 1007.8
20260505111555 34 123 0.0 3.0 0.00 0.02 0.02 97 1008.2
20260505101535 33 82 0.0 4.0 0.00 0.02 0.02 96 1008.0
20260505100033 33 157 2.0 4.0 0.00 0.02 0.02 96 1008.1
20260505094528 34 207 0.0 6.0 0.00 0.02 0.02 96 1008.2
20260505093028 34 100 3.0 7.0 0.00 0.02 0.02 96 1008.5
20260505091525 34 105 0.0 3.0 0.00 0.02 0.02 96 1008.7
20260505090018 34 102 1.0 3.0 0.00 0.02 0.02 96 1008.8
20260505084519 33 104 0.0 4.0 0.01 0.02 0.02 96 1008.9
20260505083017 34 91 1.0 3.0 0.01 0.02 0.02 96 1008.9
20260505081511 34 105 2.0 5.0 0.01 0.02 0.02 96 1009.4
20260505080025 34 104 3.0 8.0 0.01 0.02 0.02 96 1009.4
20260505074501 34 108 0.0 3.0 0.01 0.01 0.01 96 1009.6
20260505073106 34 110 0.0 2.0 0.01 0.01 0.01 96 1009.8
20260505071553 34 153 1.0 4.0 0.01 0.01 0.01 96 1010.0
20260505070051 35 105 1.0 7.0 0.01 0.01 0.01 96 1010.2
20260505064557 35 110 0.0 3.0 0.00 0.00 0.00 96 1010.0
20260505063051 35 101 0.0 3.0 0.00 0.00 0.00 96 1010.2
20260505061544 35 107 1.0 6.0 0.00 0.00 0.00 96 1010.2
20260505060041 35 145 1.0 5.0 0.00 0.00 0.00 96 1010.3
20260505054539 35 125 0.0 3.0 0.00 0.00 0.00 96 1010.3
20260505053037 35 106 1.0 5.0 0.00 0.00 0.00 96 1010.3
20260505051535 35 110 2.0 11.0 0.00 0.00 0.00 96 1010.4
20260505041531 35 126 6.0 13.0 0.00 0.00 0.00 96 1010.0
20260505040021 35 108 2.0 10.0 0.00 0.00 0.00 95 1010.1
20260505034518 35 109 2.0 8.0 0.00 0.00 0.00 95 1009.6